Weather History for Seward, AK

Change the Weather History Date:

Sunday, August 25, 2013

  Actual Average Record
Temperature  
Mean Temperature 58 °F -  
Max Temperature 68 °F 61 °F 75 °F (2010)
Min Temperature 46 °F 47 °F 42 °F (1974)
Degree Days  
Heating Degree Days 7    
Growing Degree Days 8 (Base 50)    
Moisture  
Dew Point 45 °F    
Average Humidity 65    
Maximum Humidity 93    
Minimum Humidity 39    
Precipitation  
Precipitation 0.00 in - - ()
Sea Level Pressure  
Sea Level Pressure 29.69 in    
Wind  
Wind Speed 10 mph (NNE)    
Max Wind Speed 16 mph    
Max Gust Speed 26 mph    
Visibility 10 miles    
Events      
Averages and records for this station are not official NWS values.
T = Trace of Precipitation, MM = Missing Value Source: NWS Daily Summary

Daily Weather History Graph

Daily Weather History Graph

Search for Another Location

Airport:

Trip Planner

Search our weather history database for the weather conditions in past years. The results will help you decide how hot, cold, wet, or windy it might be!

Date:

Astronomy

Aug. 25, 2013 Rise Set
Actual Time 6:36 AM AKDT 9:20 PM AKDT
Civil Twilight 5:49 AM AKDT 10:07 PM AKDT
Nautical Twilight 4:45 AM AKDT 11:10 PM AKDT
Astronomical Twilight 3:06 AM AKDT 12:44 AM AKDT
Moon 10:18 PM AKDT (8/25) 1:24 PM AKDT (8/25)
Length of Visible Light 16h 18m
Length of Day
14h 44m
Waning Gibbous, 74% of the Moon is Illuminated
Aug 25
Waning Gibbous
Aug 28
Last Quarter
Sep 5
New
Sep 12
First Quarter
Sep 19
Full

Hourly Weather History & Observations

Time (AKDT) Temp. Dew Point Humidity Pressure Visibility Wind Dir Wind Speed Gust Speed Precip Events Conditions
12:53 AM 59.0 °F 39.9 °F 49% 29.67 in 10.0 mi NNE 8.1 mph - N/A   Clear
1:53 AM 57.9 °F 39.9 °F 51% 29.67 in 10.0 mi North 11.5 mph - N/A   Clear
2:53 AM 55.0 °F 41.0 °F 59% 29.68 in 10.0 mi NNE 9.2 mph - N/A   Clear
3:53 AM 55.9 °F 39.9 °F 55% 29.68 in 10.0 mi North 15.0 mph - N/A   Clear
4:53 AM 55.9 °F 39.9 °F 55% 29.69 in 10.0 mi North 15.0 mph 23.0 mph N/A   Clear
5:53 AM 54.0 °F 39.9 °F 59% 29.69 in 10.0 mi North 12.7 mph 24.2 mph N/A   Clear
6:53 AM 52.0 °F 39.9 °F 63% 29.69 in 10.0 mi NNE 12.7 mph 23.0 mph N/A   Clear
7:53 AM 51.1 °F 41.0 °F 68% 29.70 in 10.0 mi NNE 12.7 mph 19.6 mph N/A   Clear
8:53 AM 54.0 °F 41.0 °F 62% 29.70 in 10.0 mi North 16.1 mph 26.5 mph N/A   Clear
9:53 AM 57.0 °F 42.1 °F 57% 29.69 in 10.0 mi NNE 15.0 mph 23.0 mph N/A   Clear
10:53 AM 61.0 °F 43.0 °F 52% 29.68 in 10.0 mi NNE 12.7 mph - N/A   Clear
11:53 AM 64.9 °F 44.1 °F 47% 29.68 in 10.0 mi NNE 9.2 mph 16.1 mph N/A   Clear
12:53 PM 68.0 °F 42.1 °F 39% 29.67 in 10.0 mi North 8.1 mph - N/A   Clear
1:53 PM 62.1 °F 50.0 °F 65% 29.68 in 10.0 mi South 8.1 mph - N/A   Clear
2:53 PM 64.0 °F 50.0 °F 60% 29.68 in 10.0 mi South 5.8 mph - N/A   Clear
3:53 PM 63.0 °F 51.1 °F 65% 29.69 in 10.0 mi South 16.1 mph - N/A   Clear
4:53 PM 62.1 °F 50.0 °F 65% 29.69 in 10.0 mi South 13.8 mph - N/A   Clear
5:53 PM 61.0 °F 51.1 °F 70% 29.69 in 10.0 mi SSW 13.8 mph - N/A   Clear
6:53 PM 60.1 °F 51.1 °F 72% 29.70 in 10.0 mi South 8.1 mph 16.1 mph N/A   Clear
7:53 PM 57.9 °F 51.1 °F 78% 29.70 in 10.0 mi Variable 4.6 mph - N/A   Clear
8:53 PM 55.0 °F 52.0 °F 89% 29.71 in 10.0 mi SSE 5.8 mph - N/A   Clear
9:53 PM 54.0 °F 51.1 °F 90% 29.72 in 10.0 mi Calm Calm - N/A   Clear
10:53 PM 48.9 °F 46.9 °F 93% 29.73 in 10.0 mi Calm Calm - N/A   Clear
11:53 PM 46.9 °F 45.0 °F 93% 29.75 in 10.0 mi North 4.6 mph - N/A   Clear